Regional Weather Roundup
Issued by NWS

Home | Current Version | Previous Version | Text Only | Print | Product List | Glossary On
Versions: 1 2 3 4 5 6 7 8 9 10 11 12 13 14 15 16 17 18 19 20 21 22 23 24 25 26 27 28 29 30 31 32 33 34 35 36 37 38 39 40 41 42 43 44 45 46 47 48 49 50
000
ASUS43 KFSD 032110
RWRSD

WEATHER ROUNDUP FOR SOUTH DAKOTA
NATIONAL WEATHER SERVICE SIOUX FALLS SD
400 PM CDT WED JUN 03 2015

NOTE: "FAIR" INDICATES FEW OR NO CLOUDS BELOW 12,000 FEET WITH NO
SIGNIFICANT WEATHER AND/OR OBSTRUCTIONS TO VISIBILITY.


SDZ001>005-009-010-012>017-032200-
NORTHWEST AND NORTH CENTRAL SOUTH DAKOTA

CITY           SKY/WX    TMP DP  RH WIND       PRES   REMARKS
BUFFALO          N/A     68  49  50 E7        29.94S
FAITH            N/A     69  51  52 N10G17    29.98S
MOBRIDGE       SUNNY     68  51  54 N15       29.94F
$$

SDZ012>016-024>037-041>051-057-063-072>074-032200-
SOUTHWEST AND SOUTH CENTRAL SOUTH DAKOTA

CITY           SKY/WX    TMP DP  RH WIND       PRES   REMARKS
RAPID CTY ARPT PTSUNNY   65  54  67 NE6       30.01S
PIERRE         SUNNY     72  55  55 N10G20    29.93F
CUSTER         PTSUNNY   66  52  60 E10       30.05F
ELLSWORTH AFB  PTSUNNY   65  55  69 CALM      30.01
PHILIP         SUNNY     72  55  55 N6        29.97F
PINE RIDGE     MOSUNNY   73  54  51 MISG      29.99S
SPEARFISH      FAIR      64  55  72 E8        30.03S
WINNER         FAIR      75  57  53 N7        29.95F
$$

SDZ004>011-016>023-039-040-032200-
NORTHEAST SOUTH DAKOTA

CITY           SKY/WX    TMP DP  RH WIND       PRES   REMARKS
ABERDEEN       MOSUNNY   72  58  61 N12       29.91S
WATERTOWN      CLOUDY    71  60  68 N13       29.90R
BROOKINGS      MOSUNNY   72  61  68 NW9       29.90F
SISSETON         N/A     66  58  75 N9        29.89R
$$

SDZ017-020-022-023-036>040-048>070-032200-
SOUTHEAST SOUTH DAKOTA

CITY           SKY/WX    TMP DP  RH WIND       PRES   REMARKS
SIOUX FALLS    MOSUNNY   78  63  59 W8        29.88F
HURON          MOSUNNY   75  60  59 NW14      29.90R
CHAMBERLAIN    SUNNY     72  57  60 NW10      29.94R
MITCHELL       MOSUNNY   78  60  53 NW10      29.90S
YANKTON        SUNNY     79  63  57 CALM      29.87F
$$

ABBREVIATIONS USED IN REMARKS
   TC - TEMPERATURE IN CELSIUS
  WCI - WIND CHILL INDEX
   HX - HEAT INDEX
  VSB - VISIBILITY




USA.gov is the U.S. government's official web portal to all federal, state and local government web resources and services.